owner,sensor,date,latitude,longitude,vertical_datum,sea_water_temperature,qcFlag
ATP,ioos:station:wmo:42869:1,2020-04-01T00:22:00Z,26.6632,-91.5574,6.8,25.6,11111222
ATP,ioos:station:wmo:42869:1,2020-04-01T01:02:00Z,26.6632,-91.5571,6.6,25.6,11111222
ATP,ioos:station:wmo:42869:1,2020-04-01T01:12:00Z,26.6632,-91.5570,6.6,25.6,11111222
ATP,ioos:station:wmo:42869:1,2020-04-01T01:22:00Z,26.6631,-91.5567,6.5,25.6,11111222
ATP,ioos:station:wmo:42869:1,2020-04-01T02:02:00Z,26.6631,-91.5574,6.6,25.6,11111222
ATP,ioos:station:wmo:42869:1,2020-04-01T03:03:00Z,26.6630,-91.5571,6.5,25.6,11111222
ATP,ioos:station:wmo:42869:1,2020-04-01T03:13:00Z,26.6630,-91.5572,6.5,25.6,11111222
ATP,ioos:station:wmo:42869:1,2020-04-01T03:23:00Z,26.6630,-91.5571,6.6,25.6,11111222
ATP,ioos:station:wmo:42869:1,2020-04-01T03:33:00Z,26.6630,-91.5573,6.5,25.6,11111222
ATP,ioos:station:wmo:42869:1,2020-04-01T04:44:00Z,26.6631,-91.5574,6.6,25.5,11111222
ATP,ioos:station:wmo:42869:1,2020-04-01T04:54:00Z,26.6630,-91.5573,6.6,25.5,11111222
ATP,ioos:station:wmo:42869:1,2020-04-01T05:35:00Z,26.6630,-91.5571,6.7,25.4,11111222
ATP,ioos:station:wmo:42869:1,2020-04-01T06:16:00Z,26.6630,-91.5573,6.4,25.4,11111222
ATP,ioos:station:wmo:42869:1,2020-04-01T06:26:00Z,26.6630,-91.5577,6.6,25.4,11111222
ATP,ioos:station:wmo:42869:1,2020-04-01T07:06:00Z,26.6630,-91.5573,6.5,25.3,11111222
ATP,ioos:station:wmo:42869:1,2020-04-01T07:16:00Z,26.6631,-91.5573,6.5,25.3,11111222
ATP,ioos:station:wmo:42869:1,2020-04-01T07:26:00Z,26.6630,-91.5570,6.5,25.3,11111222
ATP,ioos:station:wmo:42869:1,2020-04-01T07:36:00Z,26.6630,-91.5571,6.5,25.3,11111222
ATP,ioos:station:wmo:42869:1,2020-04-01T07:46:00Z,26.6630,-91.5572,6.7,25.2,11111222
ATP,ioos:station:wmo:42869:1,2020-04-01T09:59:00Z,26.6631,-91.5573,7.1,25.2,11111222
ATP,ioos:station:wmo:42869:1,2020-04-01T10:09:00Z,26.6631,-91.5573,7.0,25.2,11111222
ATP,ioos:station:wmo:42869:1,2020-04-01T10:19:00Z,26.6631,-91.5573,7.2,25.2,11111222
ATP,ioos:station:wmo:42869:1,2020-04-01T10:29:00Z,26.6631,-91.5573,7.1,25.2,11111222
ATP,ioos:station:wmo:42869:1,2020-04-01T10:39:00Z,26.6630,-91.5573,7.2,25.2,11111222
ATP,ioos:station:wmo:42869:1,2020-04-01T10:49:00Z,26.6630,-91.5572,6.8,25.2,11111222
ATP,ioos:station:wmo:42869:1,2020-04-01T10:59:00Z,26.6630,-91.5572,7.0,25.2,11111222
ATP,ioos:station:wmo:42869:1,2020-04-01T11:09:00Z,26.6630,-91.5571,7.0,25.2,11111222
ATP,ioos:station:wmo:42869:1,2020-04-01T11:19:00Z,26.6629,-91.5571,6.9,25.2,11111222
ATP,ioos:station:wmo:42869:1,2020-04-01T11:29:00Z,26.6629,-91.5570,7.0,25.2,11111222
ATP,ioos:station:wmo:42869:1,2020-04-01T11:39:00Z,26.6630,-91.5571,7.0,25.2,11111222
ATP,ioos:station:wmo:42869:1,2020-04-01T11:49:00Z,26.6630,-91.5571,7.0,25.2,11111222
ATP,ioos:station:wmo:42869:1,2020-04-01T11:59:00Z,26.6630,-91.5573,7.1,25.2,11111222
ATP,ioos:station:wmo:42869:1,2020-04-01T12:09:00Z,26.6630,-91.5570,7.0,25.2,11111222
ATP,ioos:station:wmo:42869:1,2020-04-01T12:19:00Z,26.6630,-91.5571,7.0,25.2,11111222
ATP,ioos:station:wmo:42869:1,2020-04-01T12:29:00Z,26.6630,-91.5573,6.8,25.2,11111222
ATP,ioos:station:wmo:42869:1,2020-04-01T12:39:00Z,26.6630,-91.5572,6.7,25.2,11111222
ATP,ioos:station:wmo:42869:1,2020-04-01T12:49:00Z,26.6630,-91.5570,6.6,25.3,11111222
ATP,ioos:station:wmo:42869:1,2020-04-01T12:59:00Z,26.6630,-91.5573,6.5,25.3,11111222
ATP,ioos:station:wmo:42869:1,2020-04-01T13:09:00Z,26.6630,-91.5574,6.5,25.3,11111222
ATP,ioos:station:wmo:42869:1,2020-04-01T13:49:00Z,26.6631,-91.5573,6.5,25.8,11111222
ATP,ioos:station:wmo:42869:1,2020-04-01T13:59:00Z,26.6631,-91.5574,6.5,25.9,11111222
ATP,ioos:station:wmo:42869:1,2020-04-01T14:52:00Z,26.6630,-91.5572,6.6,25.9,11111222
ATP,ioos:station:wmo:42869:1,2020-04-01T15:02:00Z,26.6631,-91.5573,6.5,25.9,11111222
ATP,ioos:station:wmo:42869:1,2020-04-01T15:12:00Z,26.6631,-91.5573,6.7,26.0,11111222
ATP,ioos:station:wmo:42869:1,2020-04-01T15:22:00Z,26.6631,-91.5573,6.5,25.9,11111222
ATP,ioos:station:wmo:42869:1,2020-04-01T16:33:00Z,26.6630,-91.5573,6.6,25.9,11111222
ATP,ioos:station:wmo:42869:1,2020-04-01T16:43:00Z,26.6631,-91.5575,6.6,25.9,11111222
ATP,ioos:station:wmo:42869:1,2020-04-01T17:24:00Z,26.6630,-91.5573,6.5,25.9,11111222
ATP,ioos:station:wmo:42869:1,2020-04-01T17:34:00Z,26.6630,-91.5572,6.7,25.9,11111222
ATP,ioos:station:wmo:42869:1,2020-04-01T17:44:00Z,26.6631,-91.5572,6.6,26.0,11111222
ATP,ioos:station:wmo:42869:1,2020-04-01T17:54:00Z,26.6630,-91.5573,6.6,26.0,11111222
ATP,ioos:station:wmo:42869:1,2020-04-01T18:34:00Z,26.6630,-91.5572,6.6,26.0,11111222
ATP,ioos:station:wmo:42869:1,2020-04-01T18:44:00Z,26.6630,-91.5572,6.5,26.0,11111222
ATP,ioos:station:wmo:42869:1,2020-04-01T18:54:00Z,26.6630,-91.5573,6.7,26.0,11111222
ATP,ioos:station:wmo:42869:1,2020-04-01T19:04:00Z,26.6630,-91.5572,6.6,26.0,11111222
ATP,ioos:station:wmo:42869:1,2020-04-01T19:14:00Z,26.6631,-91.5573,6.6,26.0,11111222
ATP,ioos:station:wmo:42869:1,2020-04-01T19:54:00Z,26.6630,-91.5572,6.6,26.1,11111222
ATP,ioos:station:wmo:42869:1,2020-04-01T20:04:00Z,26.6630,-91.5570,6.6,26.1,11111222
ATP,ioos:station:wmo:42869:1,2020-04-01T20:14:00Z,26.6628,-91.5570,6.7,26.1,11111222
ATP,ioos:station:wmo:42869:1,2020-04-01T20:24:00Z,26.6629,-91.5572,6.7,26.1,11111222
ATP,ioos:station:wmo:42869:1,2020-04-01T21:36:00Z,26.6630,-91.5573,6.7,26.0,11111222
ATP,ioos:station:wmo:42869:1,2020-04-01T21:46:00Z,26.6630,-91.5573,6.6,26.0,11111222
ATP,ioos:station:wmo:42869:1,2020-04-01T21:56:00Z,26.6631,-91.5573,6.6,26.0,11111222
ATP,ioos:station:wmo:42869:1,2020-04-01T22:06:00Z,26.6630,-91.5572,6.7,26.0,11111222
ATP,ioos:station:wmo:42869:1,2020-04-01T22:46:00Z,26.6630,-91.5571,6.5,26.0,11111222
ATP,ioos:station:wmo:42869:1,2020-04-01T22:56:00Z,26.6630,-91.5571,6.6,26.0,11111222
ATP,ioos:station:wmo:42869:1,2020-04-01T23:06:00Z,26.6630,-91.5572,6.6,26.0,11111222
ATP,ioos:station:wmo:42869:1,2020-04-01T23:16:00Z,26.6631,-91.5570,6.6,26.0,11111222
ATP,ioos:station:wmo:42869:1,2020-04-01T23:26:00Z,26.6630,-91.5568,6.7,26.0,11111222
ATP,ioos:station:wmo:42869:1,2020-04-01T23:36:00Z,26.6629,-91.5574,6.6,26.0,11111222
ATP,ioos:station:wmo:42869:1,2020-04-01T23:46:00Z,26.6631,-91.5571,6.6,26.0,11111222
ATP,ioos:station:wmo:42869:1,2020-04-01T23:56:00Z,26.6631,-91.5571,6.7,26.0,11111222
ATP,ioos:station:wmo:42869:1,2020-04-02T00:06:00Z,26.6631,-91.5572,6.7,26.0,11111222
ATP,ioos:station:wmo:42869:1,2020-04-02T00:16:00Z,26.6628,-91.5572,6.6,26.0,11111222
ATP,ioos:station:wmo:42869:1,2020-04-02T00:26:00Z,26.6627,-91.5571,6.7,26.0,11111222
ATP,ioos:station:wmo:42869:1,2020-04-02T00:36:00Z,26.6629,-91.5572,6.5,26.0,11111222
ATP,ioos:station:wmo:42869:1,2020-04-02T00:46:00Z,26.6631,-91.5574,6.7,26.0,11111222
ATP,ioos:station:wmo:42869:1,2020-04-02T00:56:00Z,26.6630,-91.5573,6.6,26.0,11111222
ATP,ioos:station:wmo:42869:1,2020-04-02T01:06:00Z,26.6631,-91.5574,6.6,26.0,11111222
ATP,ioos:station:wmo:42869:1,2020-04-02T01:16:00Z,26.6630,-91.5570,6.7,26.0,11111222
ATP,ioos:station:wmo:42869:1,2020-04-02T01:26:00Z,26.6630,-91.5576,6.6,26.0,11111222
ATP,ioos:station:wmo:42869:1,2020-04-02T01:36:00Z,26.6630,-91.5572,6.5,26.0,11111222
ATP,ioos:station:wmo:42869:1,2020-04-02T01:46:00Z,26.6631,-91.5575,6.5,26.0,11111222
ATP,ioos:station:wmo:42869:1,2020-04-02T01:56:00Z,26.6632,-91.5578,6.6,26.0,11111222
ATP,ioos:station:wmo:42869:1,2020-04-02T02:06:00Z,26.6630,-91.5575,6.7,26.0,11111222
ATP,ioos:station:wmo:42869:1,2020-04-02T02:16:00Z,26.6631,-91.5573,6.5,26.0,11111222
ATP,ioos:station:wmo:42869:1,2020-04-02T02:56:00Z,26.6630,-91.5571,6.8,26.0,11111222
ATP,ioos:station:wmo:42869:1,2020-04-02T03:18:00Z,26.6630,-91.5571,6.7,26.0,11111222
ATP,ioos:station:wmo:42869:1,2020-04-02T03:28:00Z,26.6630,-91.5572,6.5,26.0,11111222
ATP,ioos:station:wmo:42869:1,2020-04-02T03:38:00Z,26.6630,-91.5573,6.6,26.0,11111222
ATP,ioos:station:wmo:42869:1,2020-04-02T03:48:00Z,26.6630,-91.5573,6.7,26.0,11111222
ATP,ioos:station:wmo:42869:1,2020-04-02T03:58:00Z,26.6630,-91.5573,6.6,26.0,11111222
ATP,ioos:station:wmo:42869:1,2020-04-02T04:39:00Z,26.6631,-91.5574,6.6,25.9,11111222
ATP,ioos:station:wmo:42869:1,2020-04-02T04:49:00Z,26.6629,-91.5571,6.6,26.0,11111222
ATP,ioos:station:wmo:42869:1,2020-04-02T05:29:00Z,26.6630,-91.5572,6.5,26.0,11111222
ATP,ioos:station:wmo:42869:1,2020-04-02T05:39:00Z,26.6630,-91.5572,6.6,26.0,11111222
ATP,ioos:station:wmo:42869:1,2020-04-02T05:49:00Z,26.6630,-91.5572,6.5,26.0,11111222
ATP,ioos:station:wmo:42869:1,2020-04-02T05:59:00Z,26.6631,-91.5572,6.5,26.0,11111222
ATP,ioos:station:wmo:42869:1,2020-04-02T06:09:00Z,26.6631,-91.5573,6.5,26.0,11111222
ATP,ioos:station:wmo:42869:1,2020-04-02T06:19:00Z,26.6630,-91.5573,6.6,25.9,11111222
ATP,ioos:station:wmo:42869:1,2020-04-02T06:29:00Z,26.6631,-91.5572,6.7,25.9,11111222
ATP,ioos:station:wmo:42869:1,2020-04-02T07:09:00Z,26.6632,-91.5569,6.6,25.9,11111222
ATP,ioos:station:wmo:42869:1,2020-04-02T07:50:00Z,26.6634,-91.5566,6.7,25.9,11111222
ATP,ioos:station:wmo:42869:1,2020-04-02T08:00:00Z,26.6633,-91.5566,6.6,25.9,11111222
ATP,ioos:station:wmo:42869:1,2020-04-02T08:40:00Z,26.6632,-91.5569,6.6,25.9,11111222
ATP,ioos:station:wmo:42869:1,2020-04-02T08:50:00Z,26.6633,-91.5568,6.6,25.9,11111222
ATP,ioos:station:wmo:42869:1,2020-04-02T09:31:00Z,26.6632,-91.5568,6.7,25.9,11111222
ATP,ioos:station:wmo:42869:1,2020-04-02T09:41:00Z,26.6633,-91.5568,6.4,25.8,11111222
ATP,ioos:station:wmo:42869:1,2020-04-02T09:51:00Z,26.6633,-91.5569,6.6,25.8,11111222
ATP,ioos:station:wmo:42869:1,2020-04-02T10:01:00Z,26.6632,-91.5570,6.5,25.8,11111222
ATP,ioos:station:wmo:42869:1,2020-04-02T10:11:00Z,26.6632,-91.5568,6.5,25.8,11111222
ATP,ioos:station:wmo:42869:1,2020-04-02T12:22:00Z,26.6634,-91.5571,6.7,25.7,11111222
ATP,ioos:station:wmo:42869:1,2020-04-02T12:32:00Z,26.6633,-91.5568,6.6,25.6,11111222
ATP,ioos:station:wmo:42869:1,2020-04-02T12:42:00Z,26.6632,-91.5568,6.7,25.6,11111222
ATP,ioos:station:wmo:42869:1,2020-04-02T12:52:00Z,26.6632,-91.5569,6.6,25.7,11111222
ATP,ioos:station:wmo:42869:1,2020-04-02T13:02:00Z,26.6633,-91.5569,6.6,25.7,11111222
ATP,ioos:station:wmo:42869:1,2020-04-02T13:12:00Z,26.6633,-91.5567,6.6,25.8,11111222
ATP,ioos:station:wmo:42869:1,2020-04-02T13:22:00Z,26.6634,-91.5570,6.6,25.8,11111222
ATP,ioos:station:wmo:42869:1,2020-04-02T13:32:00Z,26.6633,-91.5565,6.6,25.8,11111222
ATP,ioos:station:wmo:42869:1,2020-04-02T13:42:00Z,26.6630,-91.5573,6.6,25.8,11111222
ATP,ioos:station:wmo:42869:1,2020-04-02T14:23:00Z,26.6635,-91.5578,6.6,26.0,11111222
ATP,ioos:station:wmo:42869:1,2020-04-02T14:33:00Z,26.6636,-91.5579,6.7,26.0,11111222
ATP,ioos:station:wmo:42869:1,2020-04-02T14:43:00Z,26.6634,-91.5579,6.6,26.0,11111222
ATP,ioos:station:wmo:42869:1,2020-04-02T14:53:00Z,26.6638,-91.5580,6.7,26.1,11111222
ATP,ioos:station:wmo:42869:1,2020-04-02T15:03:00Z,26.6637,-91.5580,6.7,26.1,11111222
ATP,ioos:station:wmo:42869:1,2020-04-02T15:13:00Z,26.6633,-91.5579,6.6,26.1,11111222
ATP,ioos:station:wmo:42869:1,2020-04-02T15:23:00Z,26.6635,-91.5578,6.5,26.2,11111222
ATP,ioos:station:wmo:42869:1,2020-04-02T16:04:00Z,26.6634,-91.5578,6.6,26.3,11111222
ATP,ioos:station:wmo:42869:1,2020-04-02T16:14:00Z,26.6636,-91.5578,6.5,26.3,11111222
ATP,ioos:station:wmo:42869:1,2020-04-02T16:24:00Z,26.6641,-91.5578,6.5,26.3,11111222
ATP,ioos:station:wmo:42869:1,2020-04-02T16:34:00Z,26.6635,-91.5578,6.8,26.4,11111222
ATP,ioos:station:wmo:42869:1,2020-04-02T16:44:00Z,26.6633,-91.5580,6.8,26.4,11111222
ATP,ioos:station:wmo:42869:1,2020-04-02T16:54:00Z,26.6636,-91.5577,6.8,26.4,11111222
ATP,ioos:station:wmo:42869:1,2020-04-02T17:04:00Z,26.6636,-91.5577,6.9,26.5,11111222
ATP,ioos:station:wmo:42869:1,2020-04-02T17:14:00Z,26.6634,-91.5578,6.9,26.5,11111222
ATP,ioos:station:wmo:42869:1,2020-04-02T17:54:00Z,26.6635,-91.5580,6.9,26.6,11111222
ATP,ioos:station:wmo:42869:1,2020-04-02T18:48:00Z,26.6634,-91.5579,6.9,26.6,11111222
ATP,ioos:station:wmo:42869:1,2020-04-02T18:58:00Z,26.6635,-91.5578,6.8,26.6,11111222
ATP,ioos:station:wmo:42869:1,2020-04-02T19:08:00Z,26.6635,-91.5578,6.9,26.6,11111222
ATP,ioos:station:wmo:42869:1,2020-04-02T19:18:00Z,26.6634,-91.5580,6.8,26.6,11111222
ATP,ioos:station:wmo:42869:1,2020-04-02T19:28:00Z,26.6635,-91.5578,6.9,26.6,11111222
ATP,ioos:station:wmo:42869:1,2020-04-02T19:38:00Z,26.6634,-91.5578,6.8,26.7,11111222
ATP,ioos:station:wmo:42869:1,2020-04-02T20:19:00Z,26.6636,-91.5578,6.9,26.7,11111222
ATP,ioos:station:wmo:42869:1,2020-04-02T20:29:00Z,26.6635,-91.5578,6.9,26.7,11111222
ATP,ioos:station:wmo:42869:1,2020-04-02T20:39:00Z,26.6634,-91.5579,6.9,26.7,11111222
ATP,ioos:station:wmo:42869:1,2020-04-02T22:37:00Z,26.6632,-91.5569,6.9,26.6,11111222
ATP,ioos:station:wmo:42869:1,2020-04-02T22:47:00Z,26.6636,-91.5565,6.8,26.6,11111222
ATP,ioos:station:wmo:42869:1,2020-04-02T22:57:00Z,26.6634,-91.5566,7.0,26.7,11111222
ATP,ioos:station:wmo:42869:1,2020-04-02T23:37:00Z,26.6634,-91.5567,6.9,26.6,11111222
ATP,ioos:station:wmo:42869:1,2020-04-03T00:18:00Z,26.6634,-91.5568,6.8,26.6,11111222
ATP,ioos:station:wmo:42869:1,2020-04-03T00:28:00Z,26.6635,-91.5567,6.9,26.6,11111222
ATP,ioos:station:wmo:42869:1,2020-04-03T01:09:00Z,26.6634,-91.5567,6.8,26.6,11111222
ATP,ioos:station:wmo:42869:1,2020-04-03T01:19:00Z,26.6634,-91.5568,7.0,26.6,11111222
ATP,ioos:station:wmo:42869:1,2020-04-03T01:59:00Z,26.6634,-91.5568,7.0,26.6,11111222
ATP,ioos:station:wmo:42869:1,2020-04-03T02:39:00Z,26.6634,-91.5567,7.0,26.6,11111222
ATP,ioos:station:wmo:42869:1,2020-04-03T02:49:00Z,26.6633,-91.5568,6.9,26.6,11111222
ATP,ioos:station:wmo:42869:1,2020-04-03T02:59:00Z,26.6634,-91.5567,7.0,26.6,11111222
ATP,ioos:station:wmo:42869:1,2020-04-03T03:09:00Z,26.6634,-91.5567,6.9,26.6,11111222
ATP,ioos:station:wmo:42869:1,2020-04-03T03:50:00Z,26.6633,-91.5568,6.8,26.6,11111222
ATP,ioos:station:wmo:42869:1,2020-04-03T04:00:00Z,26.6634,-91.5567,6.9,26.6,11111222
ATP,ioos:station:wmo:42869:1,2020-04-03T04:10:00Z,26.6634,-91.5568,6.9,26.6,11111222
ATP,ioos:station:wmo:42869:1,2020-04-03T04:51:00Z,26.6635,-91.5567,6.7,26.6,11111222
ATP,ioos:station:wmo:42869:1,2020-04-03T05:31:00Z,26.6634,-91.5566,6.9,26.6,11111222
ATP,ioos:station:wmo:42869:1,2020-04-03T06:11:00Z,26.6634,-91.5566,6.9,26.6,11111222
ATP,ioos:station:wmo:42869:1,2020-04-03T06:21:00Z,26.6634,-91.5566,6.9,26.6,11111222
ATP,ioos:station:wmo:42869:1,2020-04-03T06:31:00Z,26.6634,-91.5568,6.9,26.6,11111222
ATP,ioos:station:wmo:42869:1,2020-04-03T06:41:00Z,26.6633,-91.5567,6.9,26.6,11111222
ATP,ioos:station:wmo:42869:1,2020-04-03T06:51:00Z,26.6634,-91.5567,6.8,26.6,11111222
ATP,ioos:station:wmo:42869:1,2020-04-03T07:01:00Z,26.6634,-91.5567,6.9,26.6,11111222
ATP,ioos:station:wmo:42869:1,2020-04-03T08:12:00Z,26.6634,-91.5567,6.9,26.5,11111222
ATP,ioos:station:wmo:42869:1,2020-04-03T10:24:00Z,26.6634,-91.5567,6.8,26.5,11111222
ATP,ioos:station:wmo:42869:1,2020-04-03T10:34:00Z,26.6634,-91.5568,6.8,26.5,11111222
ATP,ioos:station:wmo:42869:1,2020-04-03T11:15:00Z,26.6634,-91.5567,6.8,26.5,11111222
ATP,ioos:station:wmo:42869:1,2020-04-03T11:55:00Z,26.6634,-91.5567,6.9,26.5,11111222
ATP,ioos:station:wmo:42869:1,2020-04-03T12:05:00Z,26.6636,-91.5567,6.9,26.5,11111222
ATP,ioos:station:wmo:42869:1,2020-04-03T12:15:00Z,26.6637,-91.5567,6.8,26.5,11111222
ATP,ioos:station:wmo:42869:1,2020-04-03T12:25:00Z,26.6636,-91.5568,6.9,26.5,11111222
ATP,ioos:station:wmo:42869:1,2020-04-03T14:26:00Z,26.6635,-91.5567,6.9,26.5,11111222
ATP,ioos:station:wmo:42869:1,2020-04-03T15:07:00Z,26.6634,-91.5567,6.7,26.5,11111222
ATP,ioos:station:wmo:42869:1,2020-04-03T15:47:00Z,26.6636,-91.5568,6.9,26.6,11111222
ATP,ioos:station:wmo:42869:1,2020-04-03T15:57:00Z,26.6635,-91.5568,6.8,26.6,11111222
ATP,ioos:station:wmo:42869:1,2020-04-03T16:07:00Z,26.6636,-91.5567,6.9,26.6,11111222
ATP,ioos:station:wmo:42869:1,2020-04-03T16:17:00Z,26.6635,-91.5567,6.8,26.6,11111222
ATP,ioos:station:wmo:42869:1,2020-04-03T16:27:00Z,26.6635,-91.5567,6.9,26.6,11111222
ATP,ioos:station:wmo:42869:1,2020-04-03T16:37:00Z,26.6631,-91.5567,6.9,26.6,11111222
ATP,ioos:station:wmo:42869:1,2020-04-03T16:47:00Z,26.6635,-91.5567,6.9,26.6,11111222
ATP,ioos:station:wmo:42869:1,2020-04-03T16:57:00Z,26.6635,-91.5567,6.9,26.6,11111222
ATP,ioos:station:wmo:42869:1,2020-04-03T17:38:00Z,26.6635,-91.5567,6.9,26.6,11111222
ATP,ioos:station:wmo:42869:1,2020-04-03T17:48:00Z,26.6636,-91.5567,6.9,26.6,11111222
ATP,ioos:station:wmo:42869:1,2020-04-03T17:58:00Z,26.6635,-91.5567,6.8,26.6,11111222
ATP,ioos:station:wmo:42869:1,2020-04-03T18:08:00Z,26.6636,-91.5567,6.8,26.6,11111222
ATP,ioos:station:wmo:42869:1,2020-04-03T18:18:00Z,26.6636,-91.5567,6.9,26.6,11111222
ATP,ioos:station:wmo:42869:1,2020-04-03T18:59:00Z,26.6635,-91.5567,6.8,26.6,11111222
ATP,ioos:station:wmo:42869:1,2020-04-03T19:09:00Z,26.6633,-91.5569,6.8,26.6,11111222
ATP,ioos:station:wmo:42869:1,2020-04-03T19:19:00Z,26.6636,-91.5567,6.9,26.6,11111222
ATP,ioos:station:wmo:42869:1,2020-04-03T19:29:00Z,26.6636,-91.5567,6.9,26.6,11111222
ATP,ioos:station:wmo:42869:1,2020-04-03T19:39:00Z,26.6636,-91.5567,6.9,26.6,11111222
ATP,ioos:station:wmo:42869:1,2020-04-03T19:49:00Z,26.6637,-91.5567,6.8,26.6,11111222
ATP,ioos:station:wmo:42869:1,2020-04-03T19:59:00Z,26.6634,-91.5567,6.7,26.6,11111222
ATP,ioos:station:wmo:42869:1,2020-04-03T20:09:00Z,26.6634,-91.5567,6.9,26.6,11111222
ATP,ioos:station:wmo:42869:1,2020-04-03T20:19:00Z,26.6635,-91.5567,6.8,26.6,11111222
ATP,ioos:station:wmo:42869:1,2020-04-03T20:29:00Z,26.6638,-91.5564,6.8,26.6,11111222
ATP,ioos:station:wmo:42869:1,2020-04-03T20:39:00Z,26.6640,-91.5564,6.8,26.6,11111222
ATP,ioos:station:wmo:42869:1,2020-04-03T21:19:00Z,26.6639,-91.5570,6.8,26.6,11111222
ATP,ioos:station:wmo:42869:1,2020-04-03T21:29:00Z,26.6640,-91.5566,6.8,26.6,11111222
ATP,ioos:station:wmo:42869:1,2020-04-03T23:25:00Z,26.6635,-91.5567,6.8,26.6,11111222
ATP,ioos:station:wmo:42869:1,2020-04-03T23:35:00Z,26.6636,-91.5568,6.7,26.6,11111222
ATP,ioos:station:wmo:42869:1,2020-04-04T00:15:00Z,26.6636,-91.5566,6.8,26.6,11111222
ATP,ioos:station:wmo:42869:1,2020-04-04T00:56:00Z,26.6636,-91.5567,6.7,26.6,11111222
ATP,ioos:station:wmo:42869:1,2020-04-04T01:06:00Z,26.6636,-91.5568,6.9,26.6,11111222
ATP,ioos:station:wmo:42869:1,2020-04-04T01:16:00Z,26.6636,-91.5568,6.9,26.6,11111222
ATP,ioos:station:wmo:42869:1,2020-04-04T01:26:00Z,26.6636,-91.5567,6.6,26.5,11111222
ATP,ioos:station:wmo:42869:1,2020-04-04T01:36:00Z,26.6635,-91.5567,6.8,26.5,11111222
ATP,ioos:station:wmo:42869:1,2020-04-04T02:16:00Z,26.6636,-91.5567,6.9,26.5,11111222
ATP,ioos:station:wmo:42869:1,2020-04-04T02:57:00Z,26.6636,-91.5566,6.7,26.5,11111222
ATP,ioos:station:wmo:42869:1,2020-04-04T03:07:00Z,26.6632,-91.5568,6.5,26.5,11111222
ATP,ioos:station:wmo:42869:1,2020-04-04T03:17:00Z,26.6635,-91.5568,6.8,26.5,11111222
ATP,ioos:station:wmo:42869:1,2020-04-04T03:27:00Z,26.6631,-91.5568,6.9,26.5,11111222
ATP,ioos:station:wmo:42869:1,2020-04-04T04:38:00Z,26.6636,-91.5567,6.7,26.5,11111222
ATP,ioos:station:wmo:42869:1,2020-04-04T05:29:00Z,26.6637,-91.5566,6.6,26.4,11111222
ATP,ioos:station:wmo:42869:1,2020-04-04T05:39:00Z,26.6637,-91.5567,6.8,26.4,11111222
ATP,ioos:station:wmo:42869:1,2020-04-04T06:51:00Z,26.6636,-91.5567,6.7,26.4,11111222
ATP,ioos:station:wmo:42869:1,2020-04-04T07:01:00Z,26.6635,-91.5568,6.7,26.4,11111222
ATP,ioos:station:wmo:42869:1,2020-04-04T07:11:00Z,26.6635,-91.5567,6.6,26.3,11111222
ATP,ioos:station:wmo:42869:1,2020-04-04T07:21:00Z,26.6635,-91.5568,6.7,26.4,11111222
ATP,ioos:station:wmo:42869:1,2020-04-04T08:33:00Z,26.6636,-91.5567,6.6,26.4,11111222
ATP,ioos:station:wmo:42869:1,2020-04-04T08:43:00Z,26.6636,-91.5567,6.5,26.4,11111222
ATP,ioos:station:wmo:42869:1,2020-04-04T10:58:00Z,26.6636,-91.5567,6.5,26.3,11111222
ATP,ioos:station:wmo:42869:1,2020-04-04T11:08:00Z,26.6636,-91.5568,6.5,26.3,11111222
ATP,ioos:station:wmo:42869:1,2020-04-04T11:18:00Z,26.6637,-91.5567,6.5,26.3,11111222
ATP,ioos:station:wmo:42869:1,2020-04-04T11:58:00Z,26.6632,-91.5567,6.5,26.3,11111222
ATP,ioos:station:wmo:42869:1,2020-04-04T12:08:00Z,26.6641,-91.5567,6.5,26.3,11111222
ATP,ioos:station:wmo:42869:1,2020-04-04T12:48:00Z,26.6637,-91.5568,6.6,26.3,11111222
ATP,ioos:station:wmo:42869:1,2020-04-04T13:29:00Z,26.6636,-91.5568,6.5,26.3,11111222
ATP,ioos:station:wmo:42869:1,2020-04-04T13:39:00Z,26.6635,-91.5567,6.6,26.3,11111222
ATP,ioos:station:wmo:42869:1,2020-04-04T13:49:00Z,26.6636,-91.5567,6.5,26.3,11111222
ATP,ioos:station:wmo:42869:1,2020-04-04T14:29:00Z,26.6635,-91.5566,6.5,26.3,11111222
ATP,ioos:station:wmo:42869:1,2020-04-04T15:10:00Z,26.6635,-91.5567,6.4,26.3,11111222
ATP,ioos:station:wmo:42869:1,2020-04-04T15:50:00Z,26.6635,-91.5567,6.4,26.3,11111222
ATP,ioos:station:wmo:42869:1,2020-04-04T16:00:00Z,26.6636,-91.5568,6.4,26.3,11111222
ATP,ioos:station:wmo:42869:1,2020-04-04T16:10:00Z,26.6636,-91.5567,6.4,26.3,11111222
ATP,ioos:station:wmo:42869:1,2020-04-04T17:52:00Z,26.6636,-91.5567,6.5,26.3,11111222
ATP,ioos:station:wmo:42869:1,2020-04-04T18:02:00Z,26.6635,-91.5568,6.6,26.3,11111222
ATP,ioos:station:wmo:42869:1,2020-04-04T18:12:00Z,26.6636,-91.5567,6.6,26.3,11111222
ATP,ioos:station:wmo:42869:1,2020-04-04T18:22:00Z,26.6636,-91.5567,6.5,26.2,11111222
ATP,ioos:station:wmo:42869:1,2020-04-04T19:02:00Z,26.6636,-91.5567,6.3,26.1,11111222
ATP,ioos:station:wmo:42869:1,2020-04-04T19:12:00Z,26.6636,-91.5567,6.4,26.1,11111222
ATP,ioos:station:wmo:42869:1,2020-04-04T19:22:00Z,26.6635,-91.5567,6.4,26.1,11111222
ATP,ioos:station:wmo:42869:1,2020-04-04T20:04:00Z,26.6635,-91.5567,6.4,26.1,11111222
ATP,ioos:station:wmo:42869:1,2020-04-04T20:14:00Z,26.6634,-91.5567,6.4,26.0,11111222
ATP,ioos:station:wmo:42869:1,2020-04-04T22:28:00Z,26.6635,-91.5572,6.4,25.8,11111222
ATP,ioos:station:wmo:42869:1,2020-04-04T22:38:00Z,26.6635,-91.5567,6.5,25.9,11111222
ATP,ioos:station:wmo:42869:1,2020-04-04T23:19:00Z,26.6635,-91.5568,6.4,26.0,11111222
ATP,ioos:station:wmo:42869:1,2020-04-04T23:59:00Z,26.6636,-91.5567,6.3,26.0,11111222
ATP,ioos:station:wmo:42869:1,2020-04-05T00:09:00Z,26.6634,-91.5566,6.3,26.0,11111222
ATP,ioos:station:wmo:42869:1,2020-04-05T00:19:00Z,26.6636,-91.5567,6.5,26.0,11111222
ATP,ioos:station:wmo:42869:1,2020-04-05T01:00:00Z,26.6636,-91.5567,6.3,26.0,11111222
ATP,ioos:station:wmo:42869:1,2020-04-05T01:10:00Z,26.6636,-91.5567,6.3,26.0,11111222
ATP,ioos:station:wmo:42869:1,2020-04-05T01:20:00Z,26.6636,-91.5567,6.5,26.0,11111222
ATP,ioos:station:wmo:42869:1,2020-04-05T01:30:00Z,26.6635,-91.5567,6.4,26.1,11111222
ATP,ioos:station:wmo:42869:1,2020-04-05T01:40:00Z,26.6636,-91.5567,6.5,26.1,11111222
ATP,ioos:station:wmo:42869:1,2020-04-05T01:50:00Z,26.6636,-91.5567,6.5,26.0,11111222
ATP,ioos:station:wmo:42869:1,2020-04-05T02:00:00Z,26.6636,-91.5567,6.4,26.0,11111222
ATP,ioos:station:wmo:42869:1,2020-04-05T02:10:00Z,26.6637,-91.5567,6.4,26.0,11111222
ATP,ioos:station:wmo:42869:1,2020-04-05T02:20:00Z,26.6636,-91.5567,6.4,26.0,11111222
ATP,ioos:station:wmo:42869:1,2020-04-05T03:00:00Z,26.6636,-91.5567,6.5,26.0,11111222
ATP,ioos:station:wmo:42869:1,2020-04-05T03:10:00Z,26.6637,-91.5567,6.4,26.0,11111222
ATP,ioos:station:wmo:42869:1,2020-04-05T04:52:00Z,26.6636,-91.5567,6.5,25.9,11111222
ATP,ioos:station:wmo:42869:1,2020-04-05T05:02:00Z,26.6635,-91.5567,6.4,25.9,11111222
ATP,ioos:station:wmo:42869:1,2020-04-05T05:12:00Z,26.6637,-91.5566,6.4,25.8,11111222
ATP,ioos:station:wmo:42869:1,2020-04-05T05:22:00Z,26.6637,-91.5566,6.3,25.7,11111222
ATP,ioos:station:wmo:42869:1,2020-04-05T06:03:00Z,26.6637,-91.5567,6.4,26.0,11111222
ATP,ioos:station:wmo:42869:1,2020-04-05T07:16:00Z,26.6635,-91.5567,6.5,25.8,11111222
ATP,ioos:station:wmo:42869:1,2020-04-05T07:26:00Z,26.6636,-91.5567,6.5,25.8,11111222
ATP,ioos:station:wmo:42869:1,2020-04-05T08:07:00Z,26.6638,-91.5567,6.4,25.9,11111222
ATP,ioos:station:wmo:42869:1,2020-04-05T08:47:00Z,26.6638,-91.5567,6.5,26.0,11111222
ATP,ioos:station:wmo:42869:1,2020-04-05T08:57:00Z,26.6637,-91.5566,6.2,26.0,11111222
ATP,ioos:station:wmo:42869:1,2020-04-05T09:25:00Z,26.6634,-91.5571,6.2,26.0,11111222